Location: New Town
(33.2710°N, 90.7534°W)
Time: 13:47:21
(UTC+00:00)

Explorer 11/Cluster Stage 4 - Pass Details

Date: 22 May 2021
Orbit: 467 x 1257 km, 28.8° (Epoch: 14 June)

Event Time Altitude Azimuth Distance (km) Brightness Sun altitude
Rises 20:30:12 0° 210° (SSW) 2,933 9.8 54.4°
Reaches altitude 10° 20:33:07 10° 190° (S) 2,167 9.2 53.8°
Maximum altitude 20:36:27 17° 149° (SSE) 1,878 8.6 53.1°
Drops below altitude 10° 20:40:14 10° 110° (ESE) 2,525 9.0 52.3°
Sets 20:43:59 0° 92° (E) 3,649 9.6 51.5°
